THORAD DELTA 1 DEB, 8170

Orbit data source: Space-Track

THORAD DELTA 1 DEB, 8170 is space debris in SSO originally from a launch on Fri, 15 Nov 1974 UTC launched from the Air Force Western Test Range (AFWTR). Debris objects in space refer to the collection of defunct objects orbiting the Earth. Examples of debris include non-operational satellites, rocket bodies, and fragments generated from explosions, collisions, or faulty payload assembly.

Loading next visibility...
Identifier
8170, 1974-089AL
Orbit
SSO
Country
Flag of USUS
Related business
Manufacturer
Unknown
Mission
Spacecraft
Bus & Motor
Unknown
Mass
Unknown
Launch date (UTC)
1974-11-15 (51 years ago)
Launch vehicle
Unknown
Launch site
Air Force Western Test Range (AFWTR)
Object type
Payload
Rocket body
Debris
Shape & HBR
Unknown
Radar Cross Section
Small (<0.1 m²)

Expand to show TLE details & history
Last TLE update: 1 day ago

TLE from 1 day ago
0 THORAD DELTA 1 DEB
1 08170U 74089AL  25257.79980112  .00015692  00000-0  86266-2 0  9995
2 08170 101.6067 206.2855 0076078  29.0225  34.1013 14.10300984450972
Epoch: 2025-09-14T19:11Z
TLE epoch observation values (Epoch: 2025-09-14T19:11:42.816Z)
Latitude
61.44245°
Longitude
-97.70432°
Altitude
823.243 km
Speed
7.471 km/s
True Right ascension
12h 16m 57s
True Declination
61° 17' 57"
Sunlit
Object was in daylight at epoch
Visualization orbit readout
Latitude
Unknown
Longitude
Unknown
Altitude
Unknown
Speed
Unknown
Apparent Right ascension
Unknown
Apparent Declination
Unknown
Sunlit
N/A
Visualization observer readout
Local Sidereal Time
17:53:28
Azimuth
Unknown
Elevation
Unknown
Doppler factor
Unknown
Orbital elements
Apogee altitude
910.707 km
Perigee altitude
800.64 km
Semi-major axis
7,233.81 km
Eccentricity
0.00761
Inclination
101.6067°
RAAN
206.2855°
Arg. of periapsis
29.0225°
True anomaly
34.59395°
Mean anomaly
34.1013°
Eccentric anomaly
34.34723°
Mean motion
3.52771 °/min
Orbital period
102.05 mins
BSTAR
0.0086266
Loading maneuver chart data...
Computing Atmospheric mass density...
Loading historical data...
Loading historical data...
Loading historical data...
Loading historical data...
Loading historical data...
Loading historical data...
Loading historical data...

Documentation

Showing up to 5 results
|